2023/05/09 00:00:00,16.6, 6.6
2023/05/09 00:10:00,16.9, 6.5
2023/05/09 00:20:00,16.6, 6.8
2023/05/09 00:30:00,16.7, 6.6
2023/05/09 00:40:00,16.5, 6.7
2023/05/09 00:50:00,16.2, 6.5
2023/05/09 01:00:00,16.8, 6.4
2023/05/09 01:10:00,16.9, 6.7
2023/05/09 01:20:00,16.7, 6.8
2023/05/09 01:30:00,16.5, 6.4
2023/05/09 01:40:00,16.6, 6.5
2023/05/09 01:50:00,16.9, 6.4
2023/05/09 02:00:00,16.9, 6.5
2023/05/09 02:10:00,16.7, 6.7
2023/05/09 02:20:00,16.8, 6.5
2023/05/09 02:30:00,16.6, 6.5
2023/05/09 02:40:00,16.5, 6.5
2023/05/09 02:50:00,16.6, 6.3
2023/05/09 03:00:00,16.6, 6.4
2023/05/09 03:10:00,16.7, 6.3
2023/05/09 03:20:00,16.7, 6.3
2023/05/09 03:30:00,16.6, 6.1
2023/05/09 03:40:00,16.8, 6.3
2023/05/09 03:50:00,16.8, 6.2
2023/05/09 04:00:00,16.8, 6.4
2023/05/09 04:10:00,16.8, 6.2
2023/05/09 04:20:00,16.8, 6.1
2023/05/09 04:30:00,16.6, 6.3
2023/05/09 04:40:00,16.6, 6.1
2023/05/09 04:50:00,16.2, 6.0
2023/05/09 05:00:00,16.8, 6.2
2023/05/09 05:10:00,16.8, 6.1
2023/05/09 05:20:00,16.9, 6.0
2023/05/09 05:30:00,17.0, 6.0
2023/05/09 05:40:00,16.8, 6.0
2023/05/09 05:50:00,16.8, 6.0
2023/05/09 06:00:00,16.8, 6.0
2023/05/09 06:10:00,16.9, 6.3
2023/05/09 06:20:00,16.7, 6.3
2023/05/09 06:30:00,16.4, 6.2
2023/05/09 06:40:00,16.4, 6.6
2023/05/09 06:50:00,16.2, 6.3
2023/05/09 07:00:00,15.3, 9.2
2023/05/09 07:10:00,14.8, 7.9
2023/05/09 07:20:00,15.1, 8.0
2023/05/09 07:30:00,15.4, 8.5
2023/05/09 07:40:00,15.3,10.0
2023/05/09 07:50:00,14.0, 9.9
2023/05/09 08:00:00,14.2,10.4
2023/05/09 08:10:00,14.1, 9.8
2023/05/09 08:20:00, 0.0,10.8
2023/05/09 08:30:00, 0.0,12.0
2023/05/09 08:40:00, 0.0,11.7
2023/05/09 08:50:00,---,12.0
2023/05/09 09:00:00, 0.0,13.4
2023/05/09 09:10:00, 3.3,13.8
2023/05/09 09:20:00, 2.1,14.8
2023/05/09 09:30:00, 1.4,16.3
2023/05/09 09:40:00, 0.8,16.5
2023/05/09 09:50:00, 0.8,16.8
2023/05/09 10:00:00, 0.7,17.5
2023/05/09 10:10:00, 0.6,19.0
2023/05/09 10:20:00, 0.6,19.6
2023/05/09 10:30:00, 0.5,21.0
2023/05/09 10:40:00, 0.4,20.6
2023/05/09 10:50:00, 0.5,20.3
2023/05/09 11:00:00, 0.6,21.2
2023/05/09 11:10:00, 0.7,21.4
2023/05/09 11:20:00, 0.6,21.5
2023/05/09 11:30:00, 0.8,22.1
2023/05/09 11:40:00, 0.7,22.8
2023/05/09 11:50:00, 0.8,23.8
2023/05/09 12:00:00, 0.8,23.3
2023/05/09 12:10:00, 0.7,22.8
2023/05/09 12:20:00, 0.7,23.0
2023/05/09 12:30:00, 0.8,23.4
2023/05/09 12:40:00, 0.7,23.5
2023/05/09 12:50:00, 0.7,22.9
2023/05/09 13:00:00, 1.0,24.0
2023/05/09 13:10:00, 1.3,23.6
2023/05/09 13:20:00, 1.4,23.7
2023/05/09 13:30:00, 1.5,23.0
2023/05/09 13:40:00, 1.1,22.9
2023/05/09 13:50:00, 1.5,22.5
2023/05/09 14:00:00, 1.9,22.6
2023/05/09 14:10:00, 2.9,23.4
2023/05/09 14:20:00, 1.8,22.3
2023/05/09 14:30:00, 2.8,22.7
2023/05/09 14:40:00, 4.3,22.6
2023/05/09 14:50:00, 5.2,21.9
2023/05/09 15:00:00, 9.1,22.7
2023/05/09 15:10:00, 9.3,22.7
2023/05/09 15:20:00,10.1,22.1
2023/05/09 15:30:00,10.6,21.8
2023/05/09 15:40:00,10.6,21.6
2023/05/09 15:50:00,10.1,21.7
2023/05/09 16:00:00, 9.2,21.8
2023/05/09 16:10:00,10.3,21.4
2023/05/09 16:20:00,10.2,21.6
2023/05/09 16:30:00, 8.9,21.7
2023/05/09 16:40:00,10.8,22.4
2023/05/09 16:50:00,11.7,21.2
2023/05/09 17:00:00,11.5,21.1
2023/05/09 17:10:00,12.1,20.6
2023/05/09 17:20:00,11.2,20.4
2023/05/09 17:30:00,12.3,18.8
2023/05/09 17:40:00,12.4,18.1
2023/05/09 17:50:00, 8.5,16.7
2023/05/09 18:00:00,12.9,16.3
2023/05/09 18:10:00,13.4,15.3
2023/05/09 18:20:00,14.3,14.8
2023/05/09 18:30:00,14.9,14.5
2023/05/09 18:40:00,15.2,13.9
2023/05/09 18:50:00,15.5,13.4
2023/05/09 19:00:00,15.9,13.1
2023/05/09 19:10:00,16.1,12.6
2023/05/09 19:20:00,16.4,12.0
2023/05/09 19:30:00,16.6,11.7
2023/05/09 19:40:00,16.6,11.3
2023/05/09 19:50:00,16.9,11.4
2023/05/09 20:00:00,16.8,11.3
2023/05/09 20:10:00,17.0,11.2
2023/05/09 20:20:00,17.1,11.1
2023/05/09 20:30:00,17.1,10.9
2023/05/09 20:40:00,16.6,10.7
2023/05/09 20:50:00,16.4,10.3
2023/05/09 21:00:00,16.8,10.1
2023/05/09 21:10:00,16.9,10.0
2023/05/09 21:20:00,16.9, 9.4
2023/05/09 21:30:00,16.5, 9.6
2023/05/09 21:40:00,16.2, 9.6
2023/05/09 21:50:00,16.9, 9.3
2023/05/09 22:00:00,16.3, 9.0
2023/05/09 22:10:00,16.7, 8.9
2023/05/09 22:20:00,16.1, 8.7
2023/05/09 22:30:00,16.2, 8.6
2023/05/09 22:40:00,16.2, 8.5
2023/05/09 22:50:00,15.9, 8.3
2023/05/09 23:00:00,16.0, 8.1
2023/05/09 23:10:00,16.0, 8.1
2023/05/09 23:20:00,14.9, 7.8
2023/05/09 23:30:00,14.7, 7.7
2023/05/09 23:40:00,15.1, 7.5
2023/05/09 23:50:00,14.8, 7.3
